Regional Weather Roundup
Issued by NWS Goodland, KS

Home | Current Version | Previous Version | Text Only | Print | Product List | Glossary On
Versions: 1 2 3 4 5 6 7 8 9 10 11 12 13 14 15 16 17 18 19 20 21 22 23 24 25 26 27 28 29 30 31 32 33 34 35 36 37 38 39 40 41 42 43 44 45 46 47 48 49 50
436
ASUS43 KGLD 190908
RWRGLD

GOODLAND FORECAST AREA HOURLY WEATHER ROUNDUP
NATIONAL WEATHER SERVICE GOODLAND KS
200 AM MST THU JAN 19 2017

...OFFICIAL OBSERVATIONS...

CITY           SKY/WX    TMP DP  RH WIND       PRES   REMARKS
GOODLAND KS    CLOUDY    28  25  88 W6        29.65S
HILL CITY KS   CLOUDY    43  43 100 S5        29.72S FOG
IMPERIAL NEB   CLOUDY    27  24  89 NW6       29.66F
MCCOOK NEB     FOG       33  33 100 S6        29.69S VSB 1/4
AKRON CO       CLOUDY    27  18  69 W13       29.65S WCI  16
BURLINGTON CO  CLOUDY    29  24  82 SW7       29.65S
LIMON CO       CLOUDY    19  15  84 CALM      29.65S
$$

...UNOFFICIAL OBSERVATIONS...

CITY           SKY/WX    TMP DP  RH WIND       PRES   REMARKS
LENORA KS        N/A     41  32  70 S8          N/A
SHARON SPRINGS   N/A     32  30  94 CALM        N/A
TRENTON NEB      N/A     30  32 100 CALM        N/A
KIT CARSON CO    N/A     25  22  88 CALM        N/A
YUMA CO        FAIR      18  12  79 W12       29.65S WCI   5
$$




USA.gov is the U.S. government's official web portal to all federal, state and local government web resources and services.